INTELSAT 33E DEB, 64410

Orbit data source: Space-Track

INTELSAT 33E DEB, 64410 is space debris in GEO originally from a launch on Wed, 24 Aug 2016 UTC launched from the French Guiana (FRGUI). Debris objects in space refer to the collection of defunct objects orbiting the Earth. Examples of debris include non-operational satellites, rocket bodies, and fragments generated from explosions, collisions, or faulty payload assembly.

Loading next visibility...
Identifier
64410, 2016-053AQ
Orbit
GEO
Country
Flag of USUS / ITSO
Related business
Manufacturer
Boeing/ES
Mission
Spacecraft
Bus & Motor
Unknown
Mass
Unknown
Launch date (UTC)
2016-08-24 (10 years ago)
Launch vehicle
Unknown
Launch site
French Guiana (FRGUI)
Object type
Payload
Rocket body
Debris
Shape & HBR
Unknown shape, 1.1 m
Radar Cross Section
RCS unknown

Expand to show TLE details & history
Last TLE update: 17 hours ago

TLE from 17 hours ago
0 INTELSAT 33E DEB
1 64410U 16053AQ  26120.95248328  .00000101  00000-0  00000-0 0  9994
2 64410   1.3375  70.2216 0068908 354.1273   5.6310  0.99991224  5410
Epoch: 2026-04-30T22:51Z
TLE epoch observation values (Epoch: 2026-04-30T22:51:34.555Z)
Latitude
-0.00001°
Longitude
-131.72619°
Altitude
35,574.427 km
Speed
3.093 km/s
True Right ascension
04h 40m 14s
True Declination
0° 00' 00"
Sunlit
Object was in daylight at epoch
Visualization orbit readout
Latitude
Unknown
Longitude
Unknown
Altitude
Unknown
Speed
Unknown
Apparent Right ascension
Unknown
Apparent Declination
Unknown
Sunlit
N/A
Visualization observer readout
Local Sidereal Time
23:04:40
Azimuth
Unknown
Elevation
Unknown
Doppler factor
Unknown
Orbital elements
Apogee altitude
36,157.597 km
Perigee altitude
35,575.399 km
Semi-major axis
42,244.635 km
Eccentricity
0.00689
Inclination
1.3375°
RAAN
70.2216°
Arg. of periapsis
354.1273°
True anomaly
5.70915°
Mean anomaly
5.631°
Eccentric anomaly
5.67001°
Mean motion
0.24997 °/min
Orbital period
1,440.18 mins
BSTAR
0
Loading maneuver chart data...
Computing Atmospheric mass density...
Loading historical data...
Loading historical data...
Loading historical data...
Loading historical data...
Loading historical data...
Loading historical data...
Loading historical data...

Documentation

Showing up to 5 results
|